STARLINK-32084, 60347

Orbit data source: Space-Track

STARLINK-32084, 60347 is a payload satellite owned by SpaceX/Seattle (US) in LEO that was launched on Fri, 02 Aug 2024 UTC via an FALCON 9 launch vehicle from the Air Force Eastern Test Range (AFETR). Payload-class satellites include a variety of spacecraft equipped with specific instruments for various scientific and technological missions. These include communications satellites like Starlink; space stations such as the ISS; scientific satellites like the Hubble; Earth observation satellites from companies like Planet Labs, Umbra, and HawkEye 360; GPS; miniature CubeSats for education and research; and military/defense satellites.

Loading next visibility...
Identifier
60347, 2024-136U
Orbit
LEO
Country
Flag of USUS
Related business
Manufacturer
SpaceX/Seattle
Mission
Operational Commercial Communications
Bus & Motor
STARLINK V2M, Unknown motor
Mass
730 kg wet, ~700 kg dry
Launch date (UTC)
2024-08-02 (1 year ago)
Launch vehicle
FALCON 9
Launch site
Air Force Eastern Test Range (AFETR)
Object type
Payload
Rocket body
Debris
Shape & HBR
Box + 2 Pan, 17.7 m
Radar Cross Section
33.884 m², Large (>1 m²)

Expand to show TLE details & history
Last TLE update: 1 day ago

TLE from 1 day ago
0 STARLINK-32084
1 60347U 24136U   25291.93341066  .00000337  00000-0  23509-4 0  9993
2 60347  53.1622  13.9208 0001127 128.1145 231.9958 15.30183993 67964
Epoch: 2025-10-18T22:24Z
TLE epoch observation values (Epoch: 2025-10-18T22:24:06.681Z)
Latitude
0.00004°
Longitude
10.23567°
Altitude
476.638 km
Speed
7.628 km/s
True Right ascension
00h 55m 40s
True Declination
0° 00' 00"
Sunlit
Object was in full shadow at epoch
Visualization orbit readout
Latitude
Unknown
Longitude
Unknown
Altitude
Unknown
Speed
Unknown
Apparent Right ascension
Unknown
Apparent Declination
Unknown
Sunlit
N/A
Visualization observer readout
Local Sidereal Time
21:42:56
Azimuth
Unknown
Elevation
Unknown
Doppler factor
Unknown
Orbital elements
Apogee altitude
476.291 km
Perigee altitude
474.747 km
Semi-major axis
6,853.656 km
Eccentricity
0.00011
Inclination
53.1622°
RAAN
13.9208°
Arg. of periapsis
128.1145°
True anomaly
231.98562°
Mean anomaly
231.9958°
Eccentric anomaly
231.99071°
Mean motion
3.82525 °/min
Orbital period
94.11 mins
BSTAR
0.000023509
Loading maneuver chart data...
Computing Atmospheric mass density...
Loading historical data...
Loading historical data...
Loading historical data...
Loading historical data...
Loading historical data...
Loading historical data...
Loading historical data...

Documentation

Showing up to 5 results
|